Location: Pegasus Observatory
(35.6569°N, 82.5850°W)
Time: 21:19:41
(UTC-04:00)

TIGRISAT - Visible Passes

Search period start: 02 April 2020 00:00
Search period end: 12 April 2020 00:00
Orbit: 606 x 688 km, 97.7° (Epoch: 02 April)

Date Brightness Start Highest point End Pass type
(mag) Time Alt. Az. Time Alt. Az. Time Alt. Az.
02 Apr ? 21:05:57 10° NE 21:08:37 22° ENE 21:08:37 22° ENE visible
02 Apr ? 22:42:19 10° NNW 22:46:10 27° WNW 22:46:21 27° WNW visible
03 Apr ? 21:30:59 10° NNE 21:34:43 42° ENE 21:34:43 42° ENE visible
03 Apr ? 23:09:02 10° NNW 23:11:34 15° WNW 23:12:28 14° W visible
04 Apr ? 21:56:28 10° NNE 22:00:49 82° N 22:00:49 82° N visible
05 Apr ? 20:47:22 10° ENE 20:49:10 14° E 20:49:10 14° E visible
05 Apr ? 22:22:18 10° N 22:26:36 44° WNW 22:26:55 43° W visible
06 Apr ? 21:11:45 10° NE 21:15:16 27° E 21:15:16 27° E visible
06 Apr ? 22:48:31 10° NNW 22:52:04 23° WNW 22:53:00 22° W visible
07 Apr ? 21:36:54 10° NNE 21:41:19 54° E 21:41:21 53° ESE visible
07 Apr ? 23:15:35 10° NW 23:17:26 12° WNW 23:19:06 10° W visible
08 Apr ? 22:02:28 10° N 22:06:58 75° WNW 22:07:26 66° SW visible
09 Apr ? 20:52:55 10° NE 20:55:42 16° E 20:55:47 16° E visible
09 Apr ? 22:28:23 10° N 22:32:30 37° WNW 22:33:31 32° WSW visible
10 Apr ? 21:17:33 10° NNE 21:21:32 31° E 21:21:52 31° ESE visible
10 Apr ? 22:54:45 10° NNW 22:57:57 20° WNW 22:59:36 16° W visible
11 Apr ? 21:42:50 10° NNE 21:47:15 64° E 21:47:56 55° SE visible
11 Apr ? 23:22:43 10° NW 23:23:17 10° WNW 23:23:52 10° WNW visible
